Weather History for Casper, WY

Change the Weather History Date:

Sunday, September 8, 2013

  Actual Average Record
Temperature  
Mean Temperature 73 °F 62 °F  
Max Temperature 89 °F 79 °F 92 °F (1979)
Min Temperature 56 °F 45 °F 29 °F (1962)
Degree Days  
Heating Degree Days 0 5  
Month to date heating degree days 0 31  
Since 1 July heating degree days 0 77  
Cooling Degree Days 8 1  
Month to date cooling degree days 74 15  
Year to date cooling degree days 612 412  
Growing Degree Days 23 (Base 50)    
Moisture  
Dew Point 52 °F    
Average Humidity 51    
Maximum Humidity 80    
Minimum Humidity 21    
Precipitation  
Precipitation 0.01 in 0.03 in 0.84 in (1989)
Month to date precipitation 0.04 0.23  
Year to date precipitation 9.24 9.31  
Snow  
Snow 0.00 in 0.00 in - ()
Month to date snowfall 0.0 0.1  
Since 1 July snowfall 0.0 0.1  
Since 1 September snowfall 0.0 0.1  
Snow Depth 0.00 in    
Sea Level Pressure  
Sea Level Pressure 29.87 in    
Wind  
Wind Speed 7 mph (WNW)    
Max Wind Speed 25 mph    
Max Gust Speed 33 mph    
Visibility 10 miles    
Events Rain    
T = Trace of Precipitation, MM = Missing Value Source: NWS Daily Summary

Daily Weather History Graph

Daily Weather History Graph

Search for Another Location

Airport:

Trip Planner

Search our weather history database for the weather conditions in past years. The results will help you decide how hot, cold, wet, or windy it might be!

Date:

Astronomy

Sep. 08, 2013 Rise Set
Actual Time 6:38 AM MDT 7:27 PM MDT
Civil Twilight 6:09 AM MDT 7:56 PM MDT
Nautical Twilight 5:35 AM MDT 8:30 PM MDT
Astronomical Twilight 4:59 AM MDT 9:05 PM MDT
Moon 10:05 AM MDT (9/8) 8:58 PM MDT (9/8)
Length of Visible Light 13h 46m
Length of Day
12h 49m
Waxing Crescent, 11% of the Moon is Illuminated
Sep 8
Waxing Crescent
Sep 12
First Quarter
Sep 19
Full
Sep 26
Last Quarter
Oct 4
New

Hourly Weather History & Observations

Time (MDT) Temp. Dew Point Humidity Pressure Visibility Wind Dir Wind Speed Gust Speed Precip Events Conditions
12:33 AM 68.0 °F 51.8 °F 56% 30.12 in 10.0 mi WNW 13.8 mph - N/A   Clear
12:53 AM 66.9 °F 52.0 °F 59% 29.90 in 10.0 mi NW 15.0 mph 20.7 mph N/A   Clear
1:53 AM 63.0 °F 53.1 °F 70% 29.90 in 10.0 mi South 5.8 mph - N/A   Clear
2:53 AM 61.0 °F 51.1 °F 70% 29.88 in 10.0 mi WSW 4.6 mph - N/A   Clear
3:53 AM 57.0 °F 50.0 °F 77% 29.89 in 10.0 mi WSW 3.5 mph - N/A   Clear
4:53 AM 57.0 °F 51.1 °F 81% 29.89 in 10.0 mi West 3.5 mph - N/A   Clear
5:53 AM 60.1 °F 51.1 °F 72% 29.91 in 10.0 mi West 4.6 mph - N/A   Clear
6:53 AM 59.0 °F 51.1 °F 75% 29.93 in 10.0 mi North 6.9 mph - N/A   Clear
7:53 AM 62.1 °F 52.0 °F 70% 29.92 in 10.0 mi North 6.9 mph - N/A   Clear
8:53 AM 62.1 °F 54.0 °F 75% 29.92 in 10.0 mi Calm Calm - 0.00 in   Clear
9:53 AM 66.0 °F 55.9 °F 70% 29.92 in 10.0 mi NNW 4.6 mph - N/A   Partly Cloudy
10:53 AM 66.0 °F 55.9 °F 70% 29.91 in 10.0 mi NNW 5.8 mph - N/A   Partly Cloudy
11:53 AM 72.0 °F 55.0 °F 55% 29.88 in 10.0 mi Calm Calm - N/A   Clear
12:53 PM 78.1 °F 54.0 °F 43% 29.83 in 10.0 mi Variable 3.5 mph - N/A   Clear
1:53 PM 84.0 °F 48.0 °F 28% 29.79 in 10.0 mi Variable 5.8 mph - N/A   Clear
2:53 PM 86.0 °F 43.0 °F 22% 29.75 in 10.0 mi SW 12.7 mph 23.0 mph N/A   Scattered Clouds
3:53 PM 80.1 °F 48.0 °F 32% 29.77 in 10.0 mi WNW 15.0 mph 20.7 mph 0.00 in Rain Light Rain
4:53 PM 75.9 °F 51.1 °F 42% 29.78 in 10.0 mi NW 21.9 mph 33.4 mph 0.00 in   Scattered Clouds
5:53 PM 75.0 °F 52.0 °F 44% 29.78 in 10.0 mi WNW 21.9 mph 29.9 mph N/A   Clear
6:53 PM 70.0 °F 52.0 °F 53% 29.83 in 10.0 mi West 10.4 mph 18.4 mph N/A   Partly Cloudy
7:53 PM 66.9 °F 51.1 °F 57% 29.86 in 10.0 mi WSW 9.2 mph - N/A   Overcast
8:53 PM 63.0 °F 52.0 °F 67% 29.85 in 10.0 mi WNW 6.9 mph - 0.01 in   Overcast
9:53 PM 63.0 °F 52.0 °F 67% 29.86 in 10.0 mi WSW 4.6 mph - N/A   Overcast
10:53 PM 61.0 °F 54.0 °F 78% 29.86 in 10.0 mi WNW 4.6 mph - 0.00 in Rain Light Rain
11:53 PM 59.0 °F 54.0 °F 83% 29.83 in 10.0 mi West 6.9 mph - 0.00 in   Overcast